Weather Roundup
Issued by NWS Chicago, IL

Home | Current Version | Previous Version | Graphics & Text | Print | Product List | Glossary On
Versions: 1 2 3 4 5 6 7 8 9 10 11 12 13 14 15 16 17 18 19 20 21 22 23 24 25 26 27 28 29 30 31 32 33 34 35 36 37 38 39 40 41 42 43 44 45 46 47 48 49 50
000
NZUS59 KLOT 232008
HRRLOT

CHICAGO AREA WEATHER ROUNDUP
NATIONAL WEATHER SERVICE CHICAGO/ROMEOVILLE IL
200 PM CST TUE JAN 23 2018

NOTE: "FAIR" INDICATES FEW OR NO CLOUDS BELOW 12,000 FEET WITH NO
SIGNIFICANT WEATHER AND/OR OBSTRUCTIONS TO VISIBILITY.

* THESE STATIONS ARE NOT UNDER NWS QUALITY CONTROL. THEY ALSO MAY NOT
  REPORT WEATHER SUCH AS PRECIPITATION OR FOG.

ILZ005-006-012>014-019>023-232100-
NORTHEAST ILLINOIS

CITY           SKY/WX    TMP DP  RH WIND       PRES   REMARKS
OHARE          CLOUDY    30  22  72 NW14      29.89R WCI  19
MIDWAY         FLURRIES  31  24  75 NW13      29.90R WCI  21
AURORA         CLOUDY    31  25  78 NW13      29.92R WCI  21
LANSING*       CLOUDY    30  26  86 NW13      29.90R WCI  20
JOLIET*        CLOUDY    32  24  73 NW7       29.93R WCI  25
WAUKEGAN       CLOUDY    29  24  82 NW9G17    29.88R WCI  20
DUPAGE AIRPORT CLOUDY    30  24  78 NW14      29.90R WCI  19
WHEELING       CLOUDY    30  24  78 NW14      29.91R WCI  19
KANKAKEE*      CLOUDY   N/A N/A N/A NW16      29.92R
MORRIS*        CLOUDY    31  24  76 NW10      29.93R WCI  22
LEWIS AIRPORT* CLOUDY    30  24  79 NW14      29.92R WCI  19
NORTHERLY ISL    N/A     30  22  72 NW15        N/A  WCI  19
$$

WIZ051-052-058>065-066-070>072-232100-
SOUTHEAST WISCONSIN

CITY           SKY/WX    TMP DP  RH WIND       PRES   REMARKS
MILWAUKEE      CLOUDY    30  24  78 NW14G22   29.87R WCI  19
KENOSHA*       CLOUDY    29  22  75 NW13      29.88R WCI  19
RACINE*        CLOUDY    29  24  82 NW15G22   29.89R WCI  18
BURLINGTON     CLOUDY    28  23  81 NW14      29.89R WCI  17
WAUKESHA       CLOUDY    27  21  80 NW12G18   29.89R WCI  16
WEST BEND      CLOUDY    28  23  80 NW14G21   29.88R WCI  17
$$

INZ001>003-010>013-019-020-232100-
NORTHWEST INDIANA

CITY           SKY/WX    TMP DP  RH WIND       PRES   REMARKS
GARY*          CLOUDY    32  27  80 W14       29.90R WCI  22
MICHIGAN CITY* NOT AVBL
RENSSELAER*    NOT AVBL
VALPARAISO     CLOUDY    32  26  78 NW12      29.88R WCI  23
$$

LMZ740>746-232100-
SOUTHERN LAKE MICHIGAN

STATION/POSITION TIME  SKY/WX   TEMP WIND        PRES    VSBY
                                AIR  DIR/SP/G
                 (UTC)          (F)  (DEG/KT/KT) (MB)    (MI)
HARRISON CRIB    1940            30  310/ 16/ 19   N/A
BURNHAM HARBOR   2000            30  310/ 10/ 16   N/A
CALUMET HARBOR   1942            30  290/  9/ 14 1011.6R
BURNS HARBOR     1940            30  320/ 16/ 19 1012.5R
MICHIGAN CITY    1940            30  280/ 21/ 23   N/A
$$

ABBREVIATIONS USED IN REMARKS
   TC - TEMPERATURE IN CELSIUS
  WCI - WIND CHILL INDEX
   HX - HEAT INDEX
  VSB - VISIBILITY
$$




USA.gov is the U.S. government's official web portal to all federal, state and local government web resources and services.